Voltar ao catálogo

STARLINK-35166

AtivoComunicaçõesVLEO
NORAD 65499·PAYLOAD·🇺🇸 United States

Lançado Sep 5, 2025 de Cape Canaveral Space Force Station

Loading…

Próximas Passagens (próximas 24 horas)

TLE

AtualizadoSource: CelesTrak SupGP

Época: Sep 15, 2026, 03:45 UTC

1 65499C 25198H   26258.15673611 -.00004398  00000+0 -12995-3 0  2583
2 65499  53.1557 108.4603 0001176  88.4700 260.4853 15.34389103    11

Acompanhe STARLINK-35166 em tempo real com AllMySat

Download on the App Store